This demonstration page uses our WeatherBlox Daily Observations layout. Learn more.

Left ArrowRight Arrow

47.50024, -111.30081

Hourly Observations for May 23, 2016

Temp ( °F °C ) Dew Point ( °F °C ) Humidity (%) Winds ( mph kmh ) Pressure ( in mb ) Visibility ( mi km ) Precip ( " mm )
12:53 am 00:53 Clear 48 8.9 31 -0.6 52 52 SW 21 33 29.65 1004 10 16 0.00 0.00
1:53 am 01:53 Mostly Clear 48 8.9 31 -0.6 52 52 SW 23 37 29.64 1004 10 16 0.00 0.00
2:53 am 02:53 Partly Cloudy 48 8.9 32 0 54 54 SW 20 31 29.64 1004 10 16 0.00 0.00
3:53 am 03:53 Cloudy 48 8.9 32 0 54 54 SW 21 33 29.64 1004 10 16 0.00 0.00
4:53 am 04:53 Cloudy 49 9.4 32 0 52 52 SW 21 33 29.64 1004 10 16 0.00 0.00
5:53 am 05:53 Cloudy 47 8.3 33 0.6 59 59 SW 21 33 29.64 1004 10 16 0.00 0.00
6:53 am 06:53 Cloudy 48 8.9 34 1.1 58 58 SW 20 31 29.66 1004 10 16 0.00 0.00
7:53 am 07:53 Cloudy 49 9.4 34 1.1 56 56 SW 18 30 29.66 1005 10 16 0.00 0.00
8:53 am 08:53 Cloudy 50 10 34 1.1 54 54 SW 16 26 29.69 1005 10 16 0.00 0.00
9:53 am 09:53 Cloudy 52 11.1 34 1.1 50 50 SW 23 37 29.69 1005 10 16 0.00 0.00
10:53 am 10:53 Mostly Cloudy 53 11.7 34 1.1 48 48 WSW 23 37 29.70 1006 10 16 0.00 0.00
11:53 am 11:53 Cloudy 54 12.2 35 1.7 49 49 WSW 18 30 29.71 1006 10 16 0.00 0.00
12:53 pm 12:53 Cloudy with Light Rain 51 10.6 37 2.8 59 59 WNW 13 20 29.72 1007 10 16 0.00 0.03
1:03 pm 13:03 Cloudy with Light Rain 52 11 39 4 62 62 W 12 19 29.65 1004 10 16 0.00 0.00
1:53 pm 13:53 Cloudy with Light Rain 47 8.3 39 3.9 74 74 W 16 26 29.77 1008 10 16 0.00 0.03
2:53 pm 14:53 Cloudy with Light Rain 50 10 40 4.4 68 68 W 13 20 29.77 1008 10 16 0.03 0.76
3:53 pm 15:53 Cloudy 49 9.4 41 5 74 74 W 9 15 29.79 1009 10 16 0.02 0.51
4:53 pm 16:53 Cloudy with Light Rain 49 9.4 40 4.4 71 71 WSW 13 20 29.80 1009 10 16 0.00 0.03
5:53 pm 17:53 Cloudy with Light Rain 49 9.4 38 3.3 66 66 W 15 24 29.82 1010 10 16 0.00 0.03
6:53 pm 18:53 Cloudy with Light Rain 44 6.7 41 5 89 89 N 8 13 29.85 1011 10 16 0.01 0.25
7:53 pm 19:53 Cloudy with Light Rain 45 7.2 42 5.6 90 90 Calm 29.85 1011 10 16 0.01 0.25
8:53 pm 20:53 Cloudy with Light Rain 44 6.7 42 5.6 93 93 Calm 29.88 1012 7 11 0.02 0.51
9:53 pm 21:53 Cloudy with Light Rain 44 6.7 41 5 89 89 Calm 29.89 1012 10 16 0.01 0.25
10:07 pm 22:07 Cloudy with Light Rain 44 6.7 40 4.4 85 85 Calm 29.91 1013 10 16 0.01 0.25
10:18 pm 22:18 Cloudy with Light Rain 43 6 39 4 87 87 NE 3 6 29.91 1013 10 16 0.00 0.00
10:32 pm 22:32 Cloudy with Light Rain 43 6.1 41 5 93 93 Calm 29.91 1013 10 16 0.02 0.51
10:45 pm 22:45 Cloudy with Light Rain 43 6.1 41 5 93 93 Calm 29.91 1013 10 16 0.02 0.51
10:53 pm 22:53 Cloudy 43 6.1 41 5 93 93 Calm 29.90 1013 10 16 0.02 0.51
11:53 pm 23:53 Cloudy 42 5.6 40 4.4 92 92 Calm 29.91 1013 10 16 0.00 0.03

Powered by AerisWeather